{"data":{"norad_id":58466,"epoch":"2026-09-21T22:30:29.725056Z","epoch_age_seconds":120697,"freshness":"FRESH","line1":"1 58466U 23185E   26264.93784404  .00004138  00000+0  13502-3 0  9996","line2":"2 58466  97.3385 331.5517 0011569 332.9351  27.1287 15.32285621156104","mean_motion":15.32285621,"eccentricity":0.0011569,"inclination_deg":97.3385,"raan_deg":331.5517,"arg_perigee_deg":332.9351,"mean_anomaly_deg":27.1287,"bstar":0.00013502,"rev_number":15610,"period_min":93.977257259663,"perigee_km":461.07339867908,"apogee_km":476.91629234322,"semimajor_km":6847.1318455111,"source":"CELESTRAK","updated_at":"2026-09-22T09:00:26.668969Z"}}